Location: Gunnedah
(30.9923°S, 150.2369°E)
Time: 05:50:11
(UTC+10:00)

OTV 5 (USA 277) - Visible Passes

Search period start: 22 August 2019 00:00
Search period end: 01 September 2019 00:00
Orbit: 305 x 329 km, 54.5° (Epoch: 20 August)

Date Brightness Start Highest point End Pass type
(mag) Time Alt. Az. Time Alt. Az. Time Alt. Az.
28 Aug ? 05:18:09 10° N 05:20:08 19° NE 05:22:09 10° ESE visible
29 Aug ? 05:31:51 10° NW 05:34:32 77° NE 05:37:17 10° SE visible
30 Aug ? 05:46:46 10° WNW 05:49:07 26° SW 05:51:32 10° SSE visible
31 Aug ? 04:30:39 22° ESE 04:30:39 22° ESE 04:31:58 10° ESE visible
